N7MLR Weather Reports


Display with metric or nautical units.
time (UTC)temp
F
wind
direction
speed
MPH
gust
MPH
rain 1hr
in
rain 24hr
in
rain mn
in
humidity
%
barometer
mb
20260502170150 67 193 2.0 2.0 0.00 0.00 0.00 59 1022.7
20260502164137 65 224 7.0 8.0 0.00 0.00 0.00 59 1022.7
20260502163632 67 208 5.0 6.0 0.00 0.00 0.00 58 1022.9
20260502163129 68 225 2.0 2.0 0.00 0.00 0.00 58 1023.1
20260502162626 67 207 2.0 3.0 0.00 0.00 0.00 58 1022.9
20260502162123 65 198 2.0 2.0 0.00 0.00 0.00 59 1022.9
20260502161620 65 212 7.0 7.0 0.00 0.00 0.00 58 1022.5
20260502161118 66 176 5.0 7.0 0.00 0.00 0.00 59 1023.0
20260502160616 64 198 3.0 3.0 0.00 0.00 0.00 59 1022.8
20260502160114 64 211 4.0 5.0 0.00 0.00 0.00 60 1022.8
20260502152028 63 204 4.0 6.0 0.00 0.00 0.00 63 1022.8
20260502151525 63 194 1.0 1.0 0.00 0.00 0.00 66 1022.4
20260502151022 63 177 5.0 6.0 0.00 0.00 0.00 65 1022.5
20260502150520 62 185 2.0 2.0 0.00 0.00 0.00 67 1022.5
20260502130405 54 182 3.0 6.0 0.00 0.00 0.00 83 1021.0
20260502123341 50 178 2.0 2.0 0.00 0.00 0.00 90 1020.6
20260502122838 50 187 1.0 2.0 0.00 0.00 0.00 91 1020.4
20260502122334 49 192 2.0 3.0 0.00 0.00 0.00 92 1020.4
20260502121833 49 185 0.0 1.0 0.00 0.00 0.00 92 1020.3
20260502121330 48 182 1.0 1.0 0.00 0.00 0.00 93 1020.4
20260502120827 48 182 1.0 1.0 0.00 0.00 0.00 94 1020.2
20260502120323 48 186 2.0 2.0 0.00 0.00 0.00 94 1020.1
20260502115821 48 187 0.0 0.0 0.00 0.00 0.00 94 1020.3
20260502115318 48 188 0.0 1.0 0.00 0.00 0.00 94 1020.3
20260502114814 48 188 1.0 2.0 0.00 0.00 0.00 93 1020.1
20260502114311 48 188 0.0 0.0 0.00 0.00 0.00 93 1020.2
20260502113808 48 188 0.0 0.0 0.00 0.00 0.00 92 1019.9
20260502113306 49 188 1.0 1.0 0.00 0.00 0.00 92 1019.8
20260502112804 49 187 0.0 0.0 0.00 0.00 0.00 92 1019.8
20260502112301 49 186 0.0 0.0 0.00 0.00 0.00 92 1019.8
20260502111758 49 192 1.0 1.0 0.00 0.00 0.00 92 1019.6
20260502111255 49 177 2.0 3.0 0.00 0.00 0.00 92 1019.5
20260502110753 49 191 1.0 1.0 0.00 0.00 0.00 92 1019.6
20260502110250 49 175 0.0 1.0 0.00 0.00 0.00 92 1019.3
20260502105748 49 187 1.0 1.0 0.00 0.00 0.00 92 1019.4
20260502105244 49 180 4.0 6.0 0.00 0.00 0.00 92 1019.4
20260502104742 49 173 0.0 0.0 0.00 0.00 0.00 92 1019.4
20260502104240 49 180 0.0 1.0 0.00 0.00 0.00 93 1019.3
20260502103737 49 180 0.0 1.0 0.00 0.00 0.00 93 1019.3
20260502103234 49 187 0.0 0.0 0.00 0.00 0.00 93 1019.3
20260502102731 49 188 1.0 1.0 0.00 0.00 0.00 92 1019.1
20260502102227 49 186 0.0 0.0 0.00 0.00 0.00 92 1019.2
20260502101726 50 186 0.0 1.0 0.00 0.00 0.00 92 1019.1
20260502101224 50 189 1.0 2.0 0.00 0.00 0.00 92 1019.1
20260502100721 50 196 1.0 2.0 0.00 0.00 0.00 92 1019.0
20260502100220 50 194 0.0 1.0 0.00 0.00 0.00 92 1018.9
20260502091154 51 201 2.0 3.0 0.00 0.00 0.00 90 1017.9
20260502090651 51 180 3.0 5.0 0.00 0.00 0.00 90 1017.8
20260502090148 51 176 3.0 5.0 0.00 0.00 0.00 90 1017.6
20260502080110 51 182 1.0 1.0 0.00 0.00 0.00 91 1017.4
20260502071044 51 175 1.0 3.0 0.00 0.00 0.00 92 1017.5
20260502070541 51 213 2.0 2.0 0.00 0.00 0.00 93 1017.3
20260502070039 51 191 4.0 5.0 0.00 0.00 0.00 93 1017.6
20260502065538 51 194 1.0 1.0 0.00 0.00 0.00 93 1017.8
20260502065034 51 200 4.0 7.0 0.00 0.00 0.00 93 1017.4
20260502064533 51 202 3.0 5.0 0.00 0.00 0.00 93 1017.7
20260502064030 51 189 3.0 6.0 0.00 0.00 0.00 93 1017.6
20260502063528 51 187 3.0 5.0 0.00 0.00 0.00 93 1017.3
20260502063025 51 210 5.0 6.0 0.00 0.00 0.00 94 1017.6
20260502062522 51 207 1.0 1.0 0.00 0.00 0.00 94 1017.6
20260502062020 51 194 3.0 3.0 0.00 0.00 0.00 94 1017.6
20260502061518 51 207 2.0 2.0 0.00 0.00 0.00 95 1017.6
20260502061015 51 200 0.0 0.0 0.00 0.00 0.00 95 1017.3
20260502060510 51 188 0.0 1.0 0.00 0.00 0.00 95 1017.5
20260502060007 51 207 3.0 3.0 0.00 0.00 0.00 95 1017.4
20260502055504 51 202 2.0 3.0 0.00 0.00 0.00 96 1017.4
20260502055004 51 195 1.0 1.0 0.00 0.00 0.00 96 1017.8
20260502054501 51 195 1.0 1.0 0.00 0.00 0.00 96 1017.9
20260502053958 51 195 1.0 1.0 0.00 0.00 0.00 96 1018.0
20260502053455 51 194 0.0 1.0 0.00 0.00 0.00 95 1017.8
20260502052953 51 194 0.0 2.0 0.00 0.00 0.00 95 1018.0
20260502052451 51 197 0.0 1.0 0.00 0.00 0.00 95 1017.9
20260502051949 51 193 1.0 2.0 0.00 0.00 0.00 95 1018.0
20260502051447 51 200 2.0 2.0 0.00 0.00 0.00 95 1018.0
20260502050944 51 190 1.0 1.0 0.00 0.00 0.00 94 1017.7
20260502050440 51 191 2.0 2.0 0.00 0.00 0.00 94 1017.6
20260502045937 52 200 2.0 3.0 0.00 1.10 1.10 94 1017.8
20260502045434 52 189 1.0 1.0 0.00 1.10 1.10 94 1017.8
20260502044931 52 197 1.0 2.0 0.00 1.10 1.10 94 1017.6
20260502044427 52 195 1.0 2.0 0.00 1.10 1.10 93 1017.7
20260502043924 52 205 3.0 3.0 0.00 1.10 1.10 93 1017.6
20260502043422 52 202 2.0 2.0 0.00 1.10 1.10 92 1017.4
20260502042921 52 202 4.0 6.0 0.00 1.10 1.10 92 1017.5
20260502042419 52 219 2.0 3.0 0.00 1.10 1.10 92 1017.2
20260502041915 52 205 1.0 2.0 0.00 1.10 1.10 92 1017.1
20260502041414 52 191 3.0 3.0 0.00 1.10 1.10 92 1017.1
20260502040910 52 122 4.0 8.0 0.00 1.10 1.10 92 1017.3
20260502040407 52 193 5.0 9.0 0.00 1.10 1.10 93 1017.1
20260502035903 52 178 1.0 3.0 0.00 1.10 1.10 94 1017.4
20260502035400 52 193 3.0 3.0 0.00 1.10 1.10 93 1017.2
20260502034857 52 176 5.0 7.0 0.00 1.10 1.10 93 1017.3
20260502034356 52 196 2.0 5.0 0.00 1.10 1.10 93 1017.3
20260502033854 52 179 5.0 6.0 0.00 1.10 1.10 92 1017.1
20260502033351 53 209 3.0 5.0 0.00 1.10 1.10 92 1017.2
20260502032847 53 197 7.0 11.0 0.00 1.10 1.10 92 1017.2
20260502032343 53 180 6.0 8.0 0.00 1.10 1.10 92 1017.1
20260502031841 53 200 4.0 6.0 0.00 1.10 1.10 92 1017.1
20260502031339 53 215 7.0 9.0 0.00 1.10 1.10 92 1017.1
20260502030837 53 197 9.0 11.0 0.00 1.10 1.10 92 1016.9
20260502030336 53 171 6.0 7.0 0.00 1.10 1.10 92 1017.0
20260502025832 53 193 6.0 9.0 0.00 1.10 1.10 92 1017.1
20260502025330 53 184 4.0 6.0 0.00 1.10 1.10 93 1017.2
20260502024828 53 185 2.0 6.0 0.00 1.10 1.10 93 1016.9
20260502024325 53 165 4.0 7.0 0.00 1.10 1.10 93 1016.7
20260502023823 53 178 1.0 2.0 0.00 1.10 1.10 93 1016.6
20260502023321 52 188 2.0 2.0 0.00 1.10 1.10 93 1016.4
20260502022818 52 186 4.0 6.0 0.00 1.10 1.10 93 1016.2
20260502022314 53 111 3.0 5.0 0.00 1.10 1.10 93 1016.1
20260502021811 53 193 5.0 6.0 0.00 1.10 1.10 93 1016.0
20260502021309 53 218 3.0 3.0 0.00 1.10 1.10 93 1015.6
20260502020806 53 210 5.0 7.0 0.00 1.10 1.10 93 1015.9
20260502020303 53 192 4.0 5.0 0.00 1.10 1.10 93 1015.9
20260502015800 53 170 4.0 5.0 0.00 1.10 1.10 92 1015.7
20260502015256 53 200 1.0 1.0 0.00 1.10 1.10 92 1015.5
20260502014754 53 182 3.0 5.0 0.00 1.10 1.10 92 1015.5
20260502014251 53 177 7.0 10.0 0.00 1.10 1.10 92 1015.5
20260502013747 53 227 9.0 11.0 0.00 1.10 1.10 92 1015.2
20260502013243 53 200 6.0 10.0 0.00 1.10 1.10 91 1015.3
20260502012740 53 210 4.0 7.0 0.00 1.10 1.10 91 1015.3
20260502012238 53 202 8.0 15.0 0.00 1.10 1.10 91 1015.4
20260502011735 53 221 8.0 10.0 0.00 1.10 1.10 91 1015.5
20260502011230 53 255 11.0 15.0 0.00 1.10 1.10 91 1015.2
20260502010728 53 233 6.0 9.0 0.00 1.10 1.10 92 1015.2
20260502010224 53 206 6.0 8.0 0.00 1.10 1.10 92 1015.0
20260502005722 54 234 7.0 10.0 0.00 1.10 1.10 92 1015.0
20260502005219 54 212 9.0 10.0 0.00 1.10 1.10 92 1014.7
20260502004715 54 187 6.0 8.0 0.00 1.10 1.10 92 1014.9
20260502004212 55 205 10.0 14.0 0.00 1.10 1.10 93 1014.4
20260502003710 55 157 5.0 8.0 0.00 1.10 1.10 94 1014.6
20260502003207 54 224 7.0 14.0 0.00 1.10 1.10 95 1014.5
20260502002703 55 221 3.0 3.0 0.00 1.10 1.10 96 1014.2
20260502002201 55 188 5.0 7.0 0.00 1.10 1.10 96 1014.0
20260502001658 55 197 6.0 8.0 0.00 1.10 1.10 96 1014.0
20260502001155 55 221 5.0 7.0 0.00 1.10 1.10 97 1013.8
20260502000653 55 192 3.0 6.0 0.00 1.10 1.10 97 1013.7
20260502000151 55 196 5.0 8.0 0.00 1.10 1.10 98 1013.5
20260501235646 55 210 3.0 3.0 0.00 1.10 1.10 98 1013.3
20260501235142 55 214 6.0 8.0 0.00 1.10 1.10 98 1013.5
20260501234638 55 172 2.0 2.0 0.00 1.10 1.10 99 1013.3
20260501234136 55 200 6.0 9.0 0.00 1.10 1.10 99 1013.2
20260501233633 55 233 5.0 7.0 0.00 1.10 1.10 99 1013.1
20260501233131 55 222 5.0 7.0 0.00 1.10 1.10 99 1013.0
20260501232627 55 217 9.0 15.0 0.00 1.10 1.10 99 1012.7
20260501232124 55 211 10.0 15.0 0.00 1.10 1.10 99 1012.6
20260501231622 55 186 5.0 7.0 0.00 1.10 1.10 99 1012.4
20260501231120 56 202 7.0 8.0 0.00 1.10 1.10 99 1012.2
20260501230618 56 181 6.0 8.0 0.00 1.10 1.10 99 1012.4
20260501230116 56 214 3.0 3.0 0.00 1.10 1.10 99 1012.3
20260501225613 56 191 5.0 8.0 0.00 1.10 1.10 99 1012.4
20260501225109 56 159 7.0 10.0 0.00 1.10 1.10 99 1012.4
20260501224607 56 209 4.0 6.0 0.00 1.10 1.10 99 1012.5
20260501224103 56 227 5.0 8.0 0.00 1.10 1.10 99 1012.5
20260501223600 56 181 3.0 5.0 0.00 1.10 1.10 99 1012.3
20260501223056 56 189 4.0 7.0 0.00 1.10 1.10 99 1012.6
20260501222552 56 147 2.0 3.0 0.00 1.10 1.10 99 1012.6
20260501222049 57 200 6.0 10.0 0.00 1.10 1.10 99 1012.4
20260501221546 56 209 5.0 7.0 0.00 1.10 1.10 99 1012.7
20260501221044 56 204 6.0 9.0 0.00 1.10 1.10 99 1012.5
20260501220541 57 217 4.0 6.0 0.00 1.10 1.10 99 1012.7
20260501220038 57 214 4.0 6.0 0.00 1.10 1.10 99 1012.2
20260501215534 57 166 4.0 6.0 0.00 1.10 1.10 99 1012.2
20260501215030 57 238 7.0 8.0 0.00 1.10 1.10 99 1012.1
20260501214525 57 147 4.0 5.0 0.05 1.10 1.10 99 1012.3
20260501214021 58 167 6.0 8.0 0.12 1.10 1.10 99 1012.0
20260501213518 57 179 2.0 2.0 0.19 1.09 1.09 99 1012.1
20260501213015 57 202 4.0 5.0 0.17 1.08 1.08 99 1011.8
20260501212510 57 156 5.0 9.0 0.12 1.06 1.06 99 1012.0
20260501212008 57 198 5.0 7.0 0.07 1.05 1.05 99 1012.4
20260501211504 57 204 5.0 7.0 0.00 1.04 1.04 99 1012.3
20260501211003 57 160 5.0 7.0 0.00 1.04 1.04 99 1012.3
20260501210458 57 209 4.0 5.0 0.07 1.04 1.04 99 1012.5
20260501205955 57 139 5.0 8.0 0.12 1.04 1.04 99 1012.4
20260501205452 57 173 2.0 2.0 0.12 1.03 1.03 99 1011.8
20260501204950 57 187 3.0 5.0 0.31 1.02 1.02 99 1011.7
20260501204445 57 154 4.0 6.0 0.40 1.01 1.01 99 1012.5
20260501203942 57 185 1.0 1.0 0.17 0.97 0.97 99 1012.5
20260501203439 57 186 0.0 1.0 0.07 0.94 0.94 99 1012.2
20260501202936 57 171 3.0 3.0 0.07 0.94 0.94 99 1012.9
20260501202433 57 187 1.0 1.0 0.07 0.93 0.93 99 1012.5
20260501201929 57 194 1.0 2.0 0.12 0.93 0.93 99 1012.0
20260501201426 58 181 3.0 5.0 0.05 0.92 0.92 99 1012.0
20260501200923 57 178 2.0 3.0 0.00 0.91 0.91 99 1011.7
20260501200420 58 151 4.0 6.0 0.00 0.91 0.91 99 1011.3
20260501195918 58 179 6.0 10.0 0.00 0.91 0.91 99 1010.9
20260501195414 59 166 6.0 7.0 0.00 0.91 0.91 99 1011.2
20260501194910 59 187 4.0 5.0 0.00 0.91 0.91 99 1011.1
20260501194406 58 202 5.0 6.0 0.00 0.91 0.91 99 1011.1
20260501193902 59 200 4.0 5.0 0.00 0.91 0.91 99 1010.9
20260501193401 59 224 4.0 5.0 0.00 0.91 0.91 99 1010.9
20260501192858 59 224 3.0 5.0 0.00 0.91 0.91 99 1010.7
20260501192355 59 204 2.0 3.0 0.00 0.91 0.91 99 1010.2
20260501191852 59 218 3.0 5.0 0.00 0.91 0.91 99 1009.9
20260501191349 59 197 7.0 13.0 0.00 0.91 0.91 99 1010.6
20260501190846 58 228 3.0 6.0 0.07 0.91 0.91 99 1010.3
20260501190342 59 213 3.0 3.0 0.24 0.91 0.91 99 1011.3
20260501185837 59 200 3.0 3.0 0.40 0.90 0.90 99 1010.9
20260501185333 59 198 2.0 2.0 0.42 0.87 0.87 99 1010.9
20260501184829 59 221 5.0 7.0 0.26 0.83 0.83 99 1011.6
20260501184325 59 178 2.0 2.0 0.07 0.80 0.80 99 1013.5
20260501183821 59 165 2.0 2.0 0.00 0.79 0.79 99 1012.8
20260501183319 59 179 3.0 5.0 0.00 0.79 0.79 99 1011.4
20260501182815 59 208 4.0 7.0 0.00 0.79 0.79 99 1011.7
20260501182312 59 202 2.0 3.0 0.00 0.79 0.79 99 1012.2
20260501181809 59 176 0.0 1.0 0.00 0.79 0.79 99 1012.0
20260501181306 59 189 2.0 2.0 0.00 0.79 0.79 99 1011.7
20260501180803 59 187 5.0 6.0 0.00 0.79 0.79 99 1011.6
20260501180259 59 181 5.0 8.0 0.00 0.79 0.79 99 1011.9
20260501175756 59 215 6.0 9.0 0.12 0.79 0.79 99 1012.2
20260501175253 59 156 5.0 8.0 0.24 0.79 0.79 99 1012.1
20260501174749 59 204 3.0 3.0 0.24 0.77 0.77 99 1012.3
20260501174247 59 193 4.0 6.0 0.17 0.75 0.75 99 1012.4
20260501173745 59 210 5.0 7.0 0.05 0.73 0.73 99 1013.4
20260501173241 59 164 4.0 7.0 0.07 0.72 0.72 99 1013.0
20260501172737 59 162 5.0 7.0 0.19 0.72 0.72 99 1013.4
20260501172233 60 178 3.0 3.0 0.17 0.71 0.71 99 1013.5
20260501171729 60 186 1.0 1.0 0.05 0.69 0.69 99 1013.5
20260501171226 59 182 1.0 1.0 0.07 0.68 0.68 99 1013.3